Regional Weather Roundup
Issued by NWS Northern Indiana

Home | Current Version | Previous Version | Graphics & Text | Print | Product List | Glossary On
Versions: 1 2 3 4 5 6 7 8 9 10 11 12 13 14 15 16 17 18 19 20 21 22 23 24 25 26 27 28 29 30 31 32 33 34 35 36 37 38 39 40 41 42 43 44 45 46 47 48 49 50
000
ASUS43 KIWX 010210
RWRIWX

KIWX WEATHER ROUNDUP
NATIONAL WEATHER SERVICE NORTHERN INDIANA
1000 PM EDT MON AUG 31 2015

NOTE: "FAIR" INDICATES FEW OR NO CLOUDS BELOW 12,000 FEET WITH NO
SIGNIFICANT WEATHER AND/OR OBSTRUCTIONS TO VISIBILITY.

* THESE STATIONS ARE NOT UNDER NWS QUALITY CONTROL. THEY ALSO MAY NOT
  REPORT WEATHER SUCH AS PRECIPITATION OR FOG.

INZ001>027-010300-
NORTHERN INDIANA

CITY           SKY/WX    TMP DP  RH WIND       PRES   REMARKS
VALPARAISO     PTCLDY    73  70  90 CALM      30.06R
MICHIGAN CITY* FOG       70  70 100 CALM      30.05R VSB 1
LAPORTE*       PTCLDY   N/A N/A N/A CALM      30.06R FOG
KNOX*          CLEAR     72  72 100 CALM      30.04R
SOUTH BEND     CLEAR     74  70  87 CALM      30.06R
GOSHEN         CLEAR     72  68  87 CALM      30.06R
MONTICELLO*    CLEAR     73  71  93 CALM      30.05R
LOGANSPORT*    CLEAR     70  64  83 CALM      30.08R
ROCHESTER*     CLEAR     79  72  78 S3        30.07R
WARSAW*        CLEAR     72  70  94 CALM      30.07R
ANGOLA*        CLEAR     72  66  83 CALM      30.08R
FORT WAYNE     PTCLDY    72  68  87 CALM      30.08R
HUNTINGTON*    CLOUDY    74  67  81 CALM      30.07R
PERU/GRISSOM   PTCLDY    73  68  86 SW6       30.06R
MARION*        LGT RAIN  74  60  63 S6        30.09R

$$
INZ028>050-010300-
CENTRAL INDIANA

CITY           SKY/WX    TMP DP  RH WIND       PRES   REMARKS
LAFAYETTE      CLEAR     75  68  78 CALM      30.06R
KOKOMO*        CLEAR     73  61  64 SW7       30.08R
MUNCIE*        MOCLDY    74  66  76 S3        30.09R
INDIANAPOLIS   PTCLDY    76  67  73 S5        30.08R

$$
MIZ043>046-050>051-056>058-064>065-071>073-077>080-010300-
SOUTHWEST LOWER MICHIGAN

CITY           SKY/WX    TMP DP  RH WIND       PRES   REMARKS
BATTLE CREEK   CLEAR     70  67  90 CALM      30.08R
BENTON HARBOR  CLEAR     69  67  93 CALM      30.04R FOG
COLDWATER*     CLEAR     69  69  99 CALM      30.08R FOG
HILLSDALE*     CLEAR     68  68 100 CALM      30.09S FOG
HOLLAND        CLEAR     66  64  93 CALM      30.06R FOG
GRAND RAPIDS   CLEAR     71  66  84 CALM      30.06R
KALAMAZOO      CLEAR     69  65  86 CALM      30.07R
STURGIS*       CLEAR     70  68  94 CALM      30.07R
THREE RIVERS*  FAIR      70  68  95 CALM      30.07R FOG

$$
OHZ001>008-015>018-024>025-010300-
NORTHWEST OHIO

CITY           SKY/WX    TMP DP  RH WIND       PRES   REMARKS
WAUSEON*       FAIR      72  72 100 CALM      30.07R
DEFIANCE       CLEAR     75  70  84 CALM      30.07R
FINDLAY        MOCLDY    74  70  87 S3        30.07R
TOLEDO EXPRESS CLEAR     72  71  97 CALM      30.06R
TOLEDO METCALF CLEAR     77  67  71 CALM      30.07R
LIMA           CLOUDY    74  69  85 CALM      30.09R

$$
AND FOR LAKE MICHIGAN COASTAL AND OPEN LAKE BUOY OBSERVATIONS

STATION/POSITION TEMP    WIND        PRES    VSBY  WAVE
                 AIR SEA DIR/SP/G                  HT/PER
                 (F)     (DEG/KT/KT) (MB)    (MI)  (FT/S)
CALUMET HARBOR    73     100/  3/  5   N/A
MICHIGAN CITY     76      90/  4/  5   N/A
BURNS HARBOR      78     110/  7/  9 1017.3R
SAINT JOSEPH      73      CALM  /  2 1018.3R
SOUTH LAKE BUOY   70 70  130/  6/  6   N/A
4 MI NW BRIDGMAN  75 73  170/  6/  6   N/A           0
MICHIGAN CITY     74 72  130/  4/  6   N/A           0

$$
&&


USA.gov is the U.S. government's official web portal to all federal, state and local government web resources and services.